FW1542 Weather Reports


Display with metric or nautical units.
time (UTC)temp
F
wind
direction
speed
MPH
gust
MPH
rain 1hr
in
rain 24hr
in
rain mn
in
humidity
%
barometer
mb
20260831014555 90 74 4.0 16.0 0.00 0.00 0.00 59 1012.5
20260831014508 90 131 5.0 15.0 0.00 0.00 0.00 60 1014.4
20260831013104 91 134 6.0 16.0 0.00 0.00 0.00 57 1012.4
20260831013005 91 142 6.0 16.0 0.00 0.00 0.00 58 1014.0
20260831011556 92 126 8.0 24.0 0.00 0.00 0.00 55 1012.4
20260831011505 92 140 8.0 22.0 0.00 0.00 0.00 56 1014.1
20260831010004 93 140 4.0 9.0 0.00 0.00 0.00 51 1013.8
20260831004600 93 147 3.0 8.0 0.00 0.00 0.00 50 1012.2
20260831004504 93 130 2.0 8.0 0.00 0.00 0.00 50 1013.6
20260831003055 93 132 3.0 10.0 0.00 0.00 0.00 49 1011.9
20260831003003 93 121 3.0 10.0 0.00 0.00 0.00 49 1013.4
20260831001552 94 150 3.0 6.0 0.00 0.00 0.00 48 1011.9
20260831001504 94 159 3.0 5.0 0.00 0.00 0.00 49 1013.4
20260831000112 94 174 3.0 9.0 0.00 0.00 0.00 48 1011.9
20260831000002 94 180 4.0 7.0 0.00 0.00 0.00 48 1013.4
20260830234556 95 130 3.0 9.0 0.00 0.00 0.00 47 1012.0
20260830234503 95 129 3.0 8.0 0.00 0.00 0.00 48 1013.6
20260830233100 95 133 5.0 11.0 0.00 0.00 0.00 47 1013.5
20260830233055 95 144 5.0 11.0 0.00 0.00 0.00 47 1011.9
20260830231605 95 125 4.0 12.0 0.00 0.00 0.00 48 1013.5
20260830231554 95 146 4.0 12.0 0.00 0.00 0.00 48 1012.1
20260830230059 96 126 4.0 11.0 0.00 0.00 0.00 47 1013.5
20260830224557 96 94 2.0 7.0 0.00 0.00 0.00 48 1013.8
20260830223056 96 159 4.0 11.0 0.00 0.00 0.00 48 1013.9
20260830223054 96 123 4.0 11.0 0.00 0.00 0.00 47 1012.4
20260830221555 97 157 7.0 12.0 0.00 0.00 0.00 47 1013.9
20260830221553 97 143 5.0 10.0 0.00 0.00 0.00 47 1012.4
20260830220106 96 197 1.0 8.0 0.00 0.00 0.00 50 1012.3
20260830220101 96 135 2.0 7.0 0.00 0.00 0.00 50 1014.0
20260830214558 96 132 7.0 16.0 0.00 0.00 0.00 48 1012.5
20260830214554 96 142 7.0 16.0 0.00 0.00 0.00 49 1014.1
20260830213056 96 115 5.0 16.0 0.00 0.00 0.00 49 1012.7
20260830213051 96 174 4.0 12.0 0.00 0.00 0.00 50 1014.2
20260830211608 97 121 6.0 14.0 0.00 0.00 0.00 49 1012.8
20260830211552 96 108 4.0 14.0 0.00 0.00 0.00 49 1014.5
20260830210056 96 130 4.0 14.0 0.00 0.00 0.00 50 1013.0
20260830210048 96 126 4.0 14.0 0.00 0.00 0.00 50 1014.8
20260830204600 97 169 4.0 14.0 0.00 0.00 0.00 49 1013.3
20260830204546 97 148 4.0 12.0 0.00 0.00 0.00 49 1015.1
20260830203100 97 0 0.0 8.0 0.00 0.00 0.00 50 1013.5
20260830203043 97 193 0.0 7.0 0.00 0.00 0.00 51 1015.2
20260830201559 96 211 3.0 10.0 0.00 0.00 0.00 52 1013.9
20260830201541 96 221 2.0 8.0 0.00 0.00 0.00 53 1015.6
20260830200058 95 134 4.0 10.0 0.00 0.00 0.00 51 1014.1
20260830200036 95 134 3.0 10.0 0.00 0.00 0.00 52 1015.8
20260830194604 94 84 2.0 13.0 0.00 0.00 0.00 54 1014.7
20260830194534 94 84 2.0 10.0 0.00 0.00 0.00 55 1016.1
20260830193100 94 122 4.0 10.0 0.00 0.00 0.00 53 1015.0
20260830193031 94 122 5.0 10.0 0.00 0.00 0.00 54 1016.3
20260830191600 94 149 3.0 9.0 0.00 0.00 0.00 55 1015.1
20260830191535 94 138 1.0 9.0 0.00 0.00 0.00 55 1016.5
20260830190026 94 172 6.0 12.0 0.00 0.00 0.00 55 1016.7
20260830184554 93 159 2.0 15.0 0.00 0.00 0.00 57 1015.5
20260830184523 93 128 3.0 11.0 0.00 0.00 0.00 57 1017.0
20260830183058 93 132 7.0 15.0 0.00 0.00 0.00 56 1015.7
20260830183020 93 136 8.0 15.0 0.00 0.00 0.00 57 1017.2
20260830181557 92 113 2.0 9.0 0.00 0.00 0.00 58 1016.0
20260830181519 92 213 2.0 9.0 0.00 0.00 0.00 59 1017.5
20260830180107 92 157 1.0 9.0 0.00 0.00 0.00 58 1016.3
20260830180020 92 178 2.0 9.0 0.00 0.00 0.00 58 1018.1
20260830174547 92 186 4.0 11.0 0.00 0.00 0.00 58 1016.5
20260830174517 92 176 4.0 10.0 0.00 0.00 0.00 59 1018.3
20260830173116 92 167 3.0 11.0 0.00 0.00 0.00 61 1016.6
20260830173014 92 165 2.0 10.0 0.00 0.00 0.00 61 1018.3
20260830171602 91 0 1.0 9.0 0.00 0.00 0.00 62 1016.7
20260830171511 91 230 2.0 9.0 0.00 0.00 0.00 63 1018.5
20260830170051 91 125 3.0 11.0 0.00 0.00 0.00 63 1016.9
20260830170030 91 131 4.0 11.0 0.00 0.00 0.00 63 1018.6
20260830164555 90 96 0.0 8.0 0.00 0.00 0.00 66 1017.0
20260830164507 90 99 0.0 8.0 0.00 0.00 0.00 66 1018.7
20260830163054 89 154 5.0 10.0 0.00 0.00 0.00 66 1017.0
20260830163007 89 101 5.0 10.0 0.00 0.00 0.00 67 1018.7
20260830161606 89 169 2.0 6.0 0.00 0.00 0.00 69 1016.9
20260830161502 89 211 2.0 6.0 0.00 0.00 0.00 68 1018.6
20260830160106 88 0 2.0 8.0 0.00 0.00 0.00 72 1017.0
20260830154557 87 178 3.0 9.0 0.00 0.00 0.00 74 1018.9
20260830154551 87 178 4.0 9.0 0.00 0.00 0.00 73 1017.1
20260830153102 86 202 3.0 12.0 0.00 0.00 0.00 76 1017.1
20260830153053 86 110 1.0 11.0 0.00 0.00 0.00 77 1018.8
20260830151607 84 225 1.0 8.0 0.00 0.00 0.00 79 1017.1
20260830151603 84 211 2.0 7.0 0.00 0.00 0.00 80 1018.8
20260830150056 84 211 4.0 11.0 0.00 0.00 0.00 79 1017.1
20260830150050 84 195 4.0 10.0 0.00 0.00 0.00 80 1018.8
20260830144557 81 202 2.0 9.0 0.00 0.00 0.00 84 1017.1
20260830144554 81 239 2.0 9.0 0.00 0.00 0.00 85 1018.8
20260830143100 80 182 3.0 10.0 0.00 0.00 0.00 87 1017.2
20260830143046 80 162 3.0 10.0 0.00 0.00 0.00 87 1018.7
20260830141645 79 178 1.0 6.0 0.00 0.00 0.00 89 1018.8
20260830141554 79 0 2.0 9.0 0.00 0.00 0.00 89 1016.9
20260830140105 79 217 1.0 9.0 0.00 0.00 0.00 89 1017.0
20260830140045 79 217 0.0 8.0 0.00 0.00 0.00 90 1018.7
20260830134600 78 138 3.0 7.0 0.00 0.00 0.00 91 1016.8
20260830134552 78 138 2.0 6.0 0.00 0.00 0.00 91 1018.6
20260830133058 78 149 1.0 6.0 0.00 0.00 0.00 91 1016.8
20260830133041 78 226 1.0 6.0 0.00 0.00 0.00 92 1018.5
20260830131601 77 229 1.0 8.0 0.00 0.00 0.00 92 1016.6
20260830131551 77 178 1.0 8.0 0.00 0.00 0.00 93 1018.4
20260830130104 77 163 1.0 5.0 0.00 0.00 0.00 92 1016.4
20260830130037 77 165 1.0 5.0 0.00 0.00 0.00 93 1018.3
20260830124558 77 0 2.0 6.0 0.00 0.00 0.00 92 1016.3
20260830124539 77 155 2.0 5.0 0.00 0.00 0.00 93 1018.2
20260830123100 77 165 0.0 9.0 0.00 0.00 0.00 92 1016.2
20260830123039 77 165 0.0 8.0 0.00 0.00 0.00 92 1018.1
20260830121606 77 165 2.0 8.0 0.00 0.00 0.00 92 1016.2
20260830121536 77 159 2.0 7.0 0.00 0.00 0.00 92 1018.0
20260830120038 77 185 2.0 5.0 0.00 0.00 0.00 92 1018.0
20260830114559 77 191 0.0 6.0 0.00 0.00 0.00 91 1016.1
20260830114535 77 191 0.0 4.0 0.00 0.00 0.00 92 1017.9
20260830113052 77 0 2.0 10.0 0.00 0.00 0.00 91 1016.1
20260830113033 77 167 1.0 9.0 0.00 0.00 0.00 91 1017.9
20260830111553 77 167 1.0 6.0 0.00 0.00 0.00 91 1016.1
20260830111533 77 167 2.0 6.0 0.00 0.00 0.00 91 1018.0
20260830110031 77 174 0.0 4.0 0.00 0.00 0.00 90 1017.9
20260830104600 77 0 2.0 7.0 0.00 0.00 0.00 90 1016.1
20260830104531 77 168 1.0 7.0 0.00 0.00 0.00 90 1017.9
20260830103056 77 191 3.0 11.0 0.00 0.00 0.00 90 1016.0
20260830103033 77 191 3.0 10.0 0.00 0.00 0.00 90 1017.7
20260830101557 77 170 2.0 9.0 0.00 0.00 0.00 89 1016.0
20260830101529 77 173 2.0 8.0 0.00 0.00 0.00 90 1017.9
20260830100053 77 207 2.0 9.0 0.00 0.00 0.00 89 1016.2
20260830100030 77 196 3.0 8.0 0.00 0.00 0.00 90 1018.0
20260830094558 77 195 1.0 6.0 0.00 0.00 0.00 89 1016.0
20260830094529 77 162 2.0 8.0 0.00 0.00 0.00 90 1017.8
20260830093056 77 173 2.0 8.0 0.00 0.00 0.00 89 1016.2
20260830093038 77 172 2.0 8.0 0.00 0.00 0.00 90 1017.7
20260830091559 77 177 1.0 5.0 0.00 0.00 0.00 88 1016.2
20260830091527 77 177 1.0 5.0 0.00 0.00 0.00 89 1017.9
20260830090055 76 159 1.0 4.0 0.00 0.00 0.00 88 1016.0
20260830090026 76 159 2.0 4.0 0.00 0.00 0.00 88 1017.7
20260830084557 77 0 1.0 3.0 0.00 0.00 0.00 87 1016.0
20260830084525 77 143 0.0 3.0 0.00 0.00 0.00 87 1017.9
20260830083052 77 139 0.0 3.0 0.00 0.00 0.00 86 1016.1
20260830083024 77 139 0.0 3.0 0.00 0.00 0.00 86 1017.5
20260830081557 77 0 1.0 2.0 0.00 0.00 0.00 84 1016.2
20260830081524 77 147 1.0 2.0 0.00 0.00 0.00 85 1017.9
20260830080055 78 0 0.0 3.0 0.00 0.00 0.00 83 1016.2
20260830080020 78 146 0.0 3.0 0.00 0.00 0.00 84 1018.0
20260830074557 78 0 0.0 3.0 0.00 0.00 0.00 82 1016.2
20260830074519 78 127 0.0 3.0 0.00 0.00 0.00 83 1018.1
20260830073051 79 169 1.0 6.0 0.00 0.00 0.00 81 1016.3
20260830073017 79 169 1.0 5.0 0.00 0.00 0.00 82 1018.2
20260830071558 79 92 1.0 10.0 0.00 0.00 0.00 80 1016.3
20260830071515 79 92 0.0 7.0 0.00 0.00 0.00 80 1018.1
20260830070058 79 156 3.0 9.0 0.00 0.00 0.00 79 1016.3
20260830070012 79 180 3.0 9.0 0.00 0.00 0.00 79 1018.1
20260830064606 80 146 2.0 9.0 0.00 0.00 0.00 78 1016.3
20260830064511 80 134 3.0 8.0 0.00 0.00 0.00 79 1018.0
20260830063049 80 134 3.0 10.0 0.00 0.00 0.00 77 1016.2
20260830063009 80 176 4.0 10.0 0.00 0.00 0.00 77 1018.0
20260830061606 81 165 1.0 9.0 0.00 0.00 0.00 75 1018.1
20260830061555 81 176 1.0 9.0 0.00 0.00 0.00 75 1016.2
20260830060100 81 154 4.0 10.0 0.00 0.00 0.00 74 1016.2
20260830060005 81 164 5.0 10.0 0.00 0.00 0.00 74 1017.8
20260830054559 81 119 4.0 11.0 0.00 0.00 0.00 73 1016.3
20260830054502 82 129 4.0 11.0 0.00 0.00 0.00 73 1018.0
20260830053101 82 144 3.0 11.0 0.00 0.00 0.00 73 1018.1
20260830053056 82 158 4.0 11.0 0.00 0.00 0.00 72 1016.2
20260830051557 83 149 5.0 11.0 0.00 0.00 0.00 72 1017.8
20260830050105 83 120 4.0 10.0 0.00 0.00 0.00 70 1016.1
20260830050054 83 121 2.0 10.0 0.00 0.00 0.00 71 1017.8
20260830044605 84 134 4.0 10.0 0.00 0.00 0.00 69 1016.1
20260830043053 84 128 5.0 12.0 0.00 0.00 0.00 69 1018.0
20260830041555 85 171 4.0 10.0 0.00 0.00 0.00 67 1017.6
20260830040056 85 136 5.0 12.0 0.00 0.00 0.00 66 1017.4
20260830034557 86 105 7.0 13.0 0.00 0.01 0.00 65 1015.8
20260830034551 86 180 6.0 12.0 0.00 0.01 0.00 65 1017.4
20260830033058 86 170 4.0 14.0 0.00 0.01 0.00 64 1015.8
20260830033051 86 140 5.0 9.0 0.00 0.01 0.00 64 1017.3
20260830031554 87 117 6.0 14.0 0.00 0.01 0.00 63 1015.5
20260830031549 87 132 6.0 12.0 0.00 0.01 0.00 64 1017.2
20260830030103 87 136 5.0 16.0 0.00 0.01 0.00 63 1015.3
20260830030050 87 180 6.0 12.0 0.00 0.01 0.00 63 1017.1
20260830024554 88 149 6.0 14.0 0.00 0.82 0.00 63 1015.0
20260830024549 88 128 5.0 14.0 0.00 0.82 0.00 63 1016.7
20260830023056 88 147 6.0 15.0 0.00 0.82 0.00 62 1014.6
20260830023049 88 150 7.0 14.0 0.00 0.82 0.00 63 1016.4
20260830021600 87 136 5.0 12.0 0.00 0.82 0.00 63 1014.2
20260830021550 87 167 3.0 11.0 0.00 0.82 0.00 63 1016.2
20260830020104 87 167 4.0 7.0 0.00 0.82 0.00 60 1013.9
20260830020047 87 143 4.0 7.0 0.00 0.82 0.00 60 1016.1